Flag for Bermuda Weather past 2 weeks in Hamilton, Bermuda

Now
68 °F

Passing clouds.


Feels Like: 68 °F
Forecast: 68 / 70 °F
Wind: 18 mph from Southwest

Location: Bermuda

Current Time: Mar 6, 2015 at 12:14:13 AM

Latest Report: Mar 5, 2015 at 10:55 PM


Visibility: N/A

Pressure: 30.24 "Hg

Humidity: 94%

Dew point: 66 °F

Location of HamiltonLocation

Historic Weather in Hamilton — Graph

°F

Hamilton temperature yesterday

Maximum temperature yesterday: 72 °F (at 10:55 AM)
Minimum temperature yesterday: 63 °F (at 2:55 AM)
Average temperature yesterday: 68 °F

Past Weeks' High & Low Weather Summary

 TemperatureHumidityPressure
High73 °F (Feb 27, 10:55 AM)94% (Feb 18, 10:55 PM)30.51 "Hg (Feb 18, 10:55 PM)
Low55 °F (Feb 20, 7:55 PM)51% (Feb 21, 1:55 PM)29.71 "Hg (Feb 25, 5:55 AM)
Average65 °F78%30.18 "Hg
* Reported Feb 18 9:04 PM — Mar 5 9:55 PM, Hamilton, Weather by CustomWeather, © 2015

Note: Actual official high and low records may vary slightly from our data, if they occured in-between our weather recording intervals... More about our weather records

Advertising

Hamilton weather history for previous 24 hours

 ConditionsComfort  
Time TempWeatherWind HumidityBarometerVisibility
9:55 PM
Thu, Mar 5
68 °FPartly cloudy.21 mph94%30.24 "HgN/A
8:55 PM68 °FPartly cloudy.17 mph94%30.24 "HgN/A
7:55 PM68 °FPassing clouds.16 mph94%30.24 "HgN/A
6:55 PM68 °FPassing clouds.16 mph94%30.21 "HgN/A
5:55 PM70 °FScattered clouds.15 mph83%30.21 "HgN/A
4:55 PM72 °FScattered clouds.15 mph78%30.21 "HgN/A
3:55 PM72 °FScattered clouds.15 mph78%30.21 "HgN/A
2:55 PM72 °FScattered clouds.16 mph78%30.21 "HgN/A
1:55 PM72 °FScattered clouds.18 mph78%30.24 "HgN/A
12:55 PM72 °FBroken clouds.16 mph78%30.24 "HgN/A
11:55 AM72 °FBroken clouds.17 mph78%30.27 "HgN/A
10:55 AM72 °FBroken clouds.14 mph73%30.30 "HgN/A
9:55 AM70 °FScattered clouds.15 mph78%30.30 "HgN/A
8:55 AM68 °FScattered clouds.15 mph83%30.30 "HgN/A
7:55 AM66 °FScattered clouds.14 mph83%30.30 "HgN/A
6:55 AM64 °FPartly sunny.10 mph83%30.27 "HgN/A
5:55 AM64 °FPassing clouds.10 mph83%30.27 "HgN/A
4:55 AM64 °FMostly cloudy.12 mph83%30.27 "HgN/A
3:55 AM63 °FOvercast.12 mph88%30.27 "HgN/A
2:55 AM63 °FOvercast.12 mph83%30.27 "HgN/A
1:55 AM64 °FPassing clouds.10 mph78%30.30 "HgN/A
12:55 AM64 °FPassing clouds.16 mph78%30.30 "HgN/A
Weather by CustomWeather, © 2015

See weather overviewHow to use our weather pages